Regional Weather Roundup
Issued by NWS

Home | Current Version | Previous Version | Graphics & Text | Print | Product List | Glossary On
Versions: 1 2 3 4 5 6 7 8 9 10 11 12 13 14 15 16 17 18 19 20 21 22 23 24 25 26 27 28
000
ASUS45 KSLC 230010
RWRUT

UTAH REGIONAL WEATHER ROUNDUP
NATIONAL WEATHER SERVICE SALT LAKE CITY UT
500 PM MST THU FEB 22 2018

UTZ001>011-023>025-230100-

NORTHERN UTAH

CITY           SKY/WX    TMP DP  RH WIND       PRES   REMARKS
BRIGHAM CITY   CLOUDY    28  24  85 CALM      29.96F
HILL AFB       CLOUDY    29  16  58 SW6       29.92S WCI  23
LOGAN          CLOUDY    24  13  62 CALM      29.96R
OGDEN          CLOUDY    31  17  56 CALM      29.93S
SALT LAKE CITY CLOUDY    36  14  40 S16       29.93S WCI  26
TOOELE VALLEY  CLOUDY    32  19  59 SW6       29.94S WCI  26
WENDOVER       CLOUDY    29  17  61 SW3       29.93
HEBER CITY       N/A     28  12  50 SW15      29.89R WCI  17
WEST JORDAN    CLOUDY    31  17  57 SE15      29.93S WCI  20

$$

UTZ011>015-024>027-230100-

CENTRAL/NORTHEAST UTAH

CITY           SKY/WX    TMP DP  RH WIND       PRES   REMARKS
PROVO AIRPORT  CLOUDY    33  16  49 S5        29.96S WCI  29
MOAB/CANYONLAN CLOUDY    39   8  27 S9        29.92S WCI  33
DELTA          CLOUDY    30  19  64 SE7       29.92F WCI  23
PRICE          PTSUNNY   28  22  78 N7        29.90S WCI  21
RICHFIELD      SUNNY     32  12  43 SW12      29.91R WCI  23
VERNAL         PTSUNNY   25  17  72 CALM      29.95S

$$

UTZ013>016-019>022-027-230100-

SOUTHERN UTAH

CITY           SKY/WX    TMP DP  RH WIND       PRES   REMARKS
BRYCE CANYON   PTSUNNY   24  10  55 SW13G20   29.89F WCI  12
CEDAR CITY     CLOUDY    31  13  47 S23G29    29.89S WCI  18
MILFORD        CLOUDY    31  18  58 S15       29.90S WCI  20
ST GEORGE      CLOUDY    46  17  31 SW22      29.97R
HANKSVILLE     CLOUDY    39   9  28 S12G17    29.95S WCI  32
KANAB          PTSUNNY   39   5  24 SW8G17    29.98F WCI  34
BLANDING         N/A     35   6  29 SW10      30.02S WCI  27

$$

REGIONAL REPORTS     COLORADO/ARIZONA

CITY           SKY/WX    TMP DP  RH WIND       PRES   REMARKS
CRAIG, CO      SNOW      23  18  81 W6        29.94R VSB 1/2 WCI  16
GRAND JUNCTION LGT SNOW  29  29 100 E5        29.98R FOG     WCI  24
RIFLE, CO      LGT SNOW  28  24  85 CALM      29.96R FOG
MONTROSE, CO   MOCLDY    34   9  35 SW14G22   29.96S WCI  25
CORTEZ, CO     MOSUNNY   38  -1  19 SW13G21   29.96F WCI  30
COLORADO CITY  MOCLDY    39  10  30 SW16      29.98S WCI  30
PAGE, AZ       CLOUDY    43  10  26 N8        29.94F
GRAND CANYON   PTSUNNY   34   7  32 SW23G33   29.96S WCI  22
KINGMAN, AZ    MOSUNNY   48  14  25 SW30G37   30.02F
FLAGSTAFF, AZ  SUNNY     30   7  37 SW26G36   29.97F WCI  16

$$

REGIONAL REPORTS    NEVADA/IDAHO/WYOMING

CITY           SKY/WX    TMP DP  RH WIND       PRES   REMARKS
LAS VEGAS, NV  MOSUNNY   55  16  21 S13G28    29.91F
ELY, NY        LGT SNOW  25  14  63 VRB5      29.85S WCI  19
ELKO, NV       MOSUNNY   28  14  55 SW5       29.88S WCI  23
POCATELLO, ID  PTSUNNY   30  17  58 S17       29.91R WCI  18
BURLEY, ID     LGT SNOW  24  20  84 W12       29.95R FOG     WCI  13
EVANSTON, WY   LGT SNOW  14   9  80 E9        29.85S WCI   2
ROCK SPRINGS,  MOCLDY    17   8  67 S5        29.89R WCI  10

$$




USA.gov is the U.S. government's official web portal to all federal, state and local government web resources and services.